Medford, WI

4:40 AM CST on February 25, 2017 (GMT -0600)
Taylor County

Weather History for KMDZ - June, 2014

Change the Weather History Date:

Sunday, June 8, 2014

  Actual Average Record
Temperature  
Mean Temperature 57 °F -  
Max Temperature 70 °F 72 °F 89 °F (2011)
Min Temperature 45 °F 49 °F 33 °F (1978)
Degree Days  
Heating Degree Days 8    
Growing Degree Days 7 (Base 50)    
Moisture  
Dew Point 45 °F    
Average Humidity 68    
Maximum Humidity 98    
Minimum Humidity 35    
Precipitation  
Precipitation 0.00 in - - ()
Sea Level Pressure  
Sea Level Pressure 30.07 in    
Wind  
Wind Speed 5 mph (North)    
Max Wind Speed 10 mph    
Max Gust Speed -    
Visibility 10 miles    
Events      
Averages and records for this station are not official NWS values.
T = Trace of Precipitation, MM = Missing Value Source: NWS Daily Summary

Daily Weather History Graph

Daily Weather History Graph

Search for Another Location

Airport or City:

Trip Planner

Search our weather history database for the weather conditions in past years. The results will help you decide how hot, cold, wet, or windy it might be!

Date:

Astronomy

Jun. 08, 2014 Rise Set
Actual Time 5:14 AM CDT 8:46 PM CDT
Civil Twilight 4:37 AM CDT 9:23 PM CDT
Nautical Twilight 3:48 AM CDT 10:12 PM CDT
Astronomical Twilight 2:44 AM CDT 11:16 PM CDT
Moon 3:53 PM CDT (6/8) 2:20 AM CDT (6/8)
Length of Visible Light 16h 46m
Length of Day
15h 31m
Waxing Gibbous, 77% of the Moon is Illuminated
Jun 8
Waxing Gibbous
Jun 12
Full
Jun 19
Last Quarter
Jun 27
New
Jul 5
First Quarter

Hourly Weather History & Observations

Time (CDT) Temp. Windchill Dew Point Humidity Pressure Visibility Wind Dir Wind Speed Gust Speed Precip Events Conditions
12:15 AM 51.8 °F - 50.0 °F 94% 30.03 in 10.0 mi North 8.1 mph - N/A   Overcast
12:35 AM 51.8 °F - 50.0 °F 94% 30.03 in 10.0 mi North 5.8 mph - N/A   Overcast
12:55 AM 50.9 °F - 49.6 °F 95% 30.03 in 10.0 mi North 5.8 mph - N/A   Overcast
1:15 AM 50.4 °F - 49.3 °F 96% 30.03 in 10.0 mi North 4.6 mph - N/A   Mostly Cloudy
1:35 AM 49.6 °F - 48.6 °F 96% 30.03 in 10.0 mi North 5.8 mph - N/A   Scattered Clouds
1:55 AM 49.1 °F - 48.2 °F 97% 30.03 in 10.0 mi North 4.6 mph - N/A   Scattered Clouds
2:15 AM 48.9 °F - 48.2 °F 97% 30.03 in 10.0 mi North 4.6 mph - N/A   Mostly Cloudy
2:35 AM 48.2 °F - 47.3 °F 97% 30.03 in 10.0 mi North 4.6 mph - N/A   Scattered Clouds
2:55 AM 47.5 °F - 46.6 °F 97% 30.03 in 10.0 mi North 4.6 mph - N/A   Clear
3:15 AM 46.8 °F - 46.2 °F 98% 30.03 in 10.0 mi North 3.5 mph - N/A   Clear
3:35 AM 46.4 °F 45.2 °F 45.7 °F 97% 30.03 in 10.0 mi North 3.5 mph - N/A   Clear
3:55 AM 46.0 °F 44.8 °F 45.5 °F 98% 30.04 in 10.0 mi North 3.5 mph - N/A   Clear
4:15 AM 45.9 °F 43.6 °F 45.1 °F 97% 30.04 in 10.0 mi North 4.6 mph - N/A   Clear
4:35 AM 45.7 °F 44.4 °F 45.0 °F 97% 30.04 in 10.0 mi North 3.5 mph - N/A   Clear
4:55 AM 45.5 °F 43.2 °F 44.6 °F 97% 30.05 in 10.0 mi North 4.6 mph - N/A   Clear
5:15 AM 45.7 °F 42.7 °F 44.4 °F 95% 30.05 in 10.0 mi North 5.8 mph - N/A   Clear
5:35 AM 45.7 °F 43.4 °F 44.6 °F 96% 30.06 in 10.0 mi North 4.6 mph - N/A   Clear
5:55 AM 45.9 °F 42.9 °F 44.8 °F 96% 30.07 in 10.0 mi NNW 5.8 mph - N/A   Clear
6:15 AM 46.4 °F 42.4 °F 45.5 °F 97% 30.08 in 10.0 mi NNW 8.1 mph - N/A   Clear
6:35 AM 46.4 °F 45.2 °F 45.7 °F 97% 30.08 in 7.0 mi North 3.5 mph - N/A   Mostly Cloudy
6:55 AM 47.8 °F - 46.6 °F 95% 30.08 in 10.0 mi North 4.6 mph - N/A   Scattered Clouds
7:15 AM 49.8 °F - 46.6 °F 89% 30.08 in 10.0 mi North 5.8 mph - N/A   Clear
7:35 AM 51.4 °F - 46.6 °F 83% 30.09 in 10.0 mi North 5.8 mph - N/A   Clear
7:55 AM 53.2 °F - 47.3 °F 80% 30.09 in 10.0 mi North 8.1 mph - N/A   Clear
8:15 AM 54.7 °F - 46.9 °F 75% 30.09 in 10.0 mi North 10.4 mph - N/A   Clear
8:35 AM 56.5 °F - 47.7 °F 72% 30.09 in 10.0 mi North 8.1 mph - N/A   Clear
8:55 AM 58.3 °F - 48.6 °F 70% 30.10 in 10.0 mi North 6.9 mph - N/A   Clear
9:35 AM 60.8 °F - 47.1 °F 61% 30.12 in 10.0 mi NNE 8.1 mph - N/A   Clear
9:55 AM 61.7 °F - 47.7 °F 60% 30.12 in 10.0 mi NNE 8.1 mph - N/A   Clear
10:15 AM 62.6 °F - 45.1 °F 53% 30.12 in 10.0 mi North 6.9 mph - N/A   Clear
10:35 AM 63.9 °F - 43.3 °F 47% 30.11 in 10.0 mi NNE 10.4 mph - N/A   Clear
10:55 AM 64.4 °F - 42.8 °F 45% 30.12 in 10.0 mi NNE 10.4 mph - N/A   Clear
11:15 AM 64.8 °F - 42.6 °F 45% 30.11 in 10.0 mi NE 10.4 mph - N/A   Clear
11:35 AM 65.3 °F - 42.8 °F 44% 30.11 in 10.0 mi North 10.4 mph - N/A   Clear
11:55 AM 64.9 °F - 40.6 °F 41% 30.11 in 10.0 mi NE 5.8 mph - N/A   Clear
12:15 PM 64.9 °F - 41.7 °F 43% 30.11 in 10.0 mi North 5.8 mph - N/A   Clear
12:35 PM 65.1 °F - 41.0 °F 41% 30.12 in 10.0 mi North 4.6 mph - N/A   Clear
12:55 PM 66.4 °F - 42.6 °F 42% 30.11 in 10.0 mi NNE 3.5 mph - N/A   Clear
1:15 PM 67.5 °F - 43.3 °F 42% 30.11 in 10.0 mi ENE 6.9 mph - N/A   Clear
1:35 PM 66.9 °F - 41.0 °F 39% 30.10 in 10.0 mi East 4.6 mph - N/A   Clear
1:55 PM 66.9 °F - 42.1 °F 40% 30.10 in 10.0 mi NNE 4.6 mph - N/A   Clear
2:15 PM 67.1 °F - 41.4 °F 39% 30.09 in 10.0 mi Calm Calm - N/A   Clear
2:35 PM 67.6 °F - 41.9 °F 39% 30.08 in 10.0 mi Calm Calm - N/A   Scattered Clouds
2:55 PM 67.8 °F - 44.8 °F 43% 30.08 in 10.0 mi WNW 5.8 mph - N/A   Mostly Cloudy
3:15 PM 68.4 °F - 44.2 °F 42% 30.08 in 10.0 mi NE 3.5 mph - N/A   Scattered Clouds
3:35 PM 68.7 °F - 43.0 °F 39% 30.07 in 10.0 mi East 4.6 mph - N/A   Scattered Clouds
3:55 PM 68.5 °F - 42.8 °F 39% 30.07 in 10.0 mi Calm Calm - N/A   Scattered Clouds
4:15 PM 69.6 °F - 42.8 °F 38% 30.06 in 10.0 mi East 3.5 mph - N/A   Scattered Clouds
4:35 PM 69.8 °F - 43.7 °F 39% 30.06 in 10.0 mi NNW 5.8 mph - N/A   Scattered Clouds
4:55 PM 69.8 °F - 43.5 °F 39% 30.06 in 10.0 mi North 3.5 mph - N/A   Clear
5:15 PM 69.1 °F - 42.6 °F 38% 30.06 in 10.0 mi NNE 3.5 mph - N/A   Clear
5:35 PM 68.9 °F - 40.5 °F 35% 30.05 in 10.0 mi Calm Calm - N/A   Clear
5:55 PM 68.2 °F - 43.0 °F 40% 30.05 in 10.0 mi Calm Calm - N/A   Clear
6:15 PM 67.5 °F - 40.3 °F 37% 30.05 in 10.0 mi Calm Calm - N/A   Clear
6:35 PM 67.6 °F - 44.2 °F 43% 30.05 in 10.0 mi Calm Calm - N/A   Clear
6:55 PM 66.6 °F - 45.1 °F 46% 30.06 in 10.0 mi Calm Calm - N/A   Clear
7:15 PM 65.8 °F - 45.1 °F 47% 30.06 in 10.0 mi Calm Calm - N/A   Clear
7:35 PM 63.9 °F - 49.5 °F 59% 30.06 in 10.0 mi Calm Calm - N/A   Scattered Clouds
7:55 PM 61.3 °F - 48.2 °F 62% 30.05 in 10.0 mi Calm Calm - N/A   Scattered Clouds
8:15 PM 60.8 °F - 48.9 °F 65% 30.06 in 10.0 mi Calm Calm - N/A   Clear
8:35 PM 57.7 °F - 46.9 °F 67% 30.06 in 10.0 mi Calm Calm - N/A   Clear
8:55 PM 57.6 °F - 47.1 °F 68% 30.06 in 10.0 mi Calm Calm - N/A   Clear
9:15 PM 54.7 °F - 47.5 °F 77% 30.06 in 10.0 mi Calm Calm - N/A   Clear
9:35 PM 54.1 °F - 47.1 °F 77% 30.06 in 10.0 mi Calm Calm - N/A   Clear
9:55 PM 54.7 °F - 48.2 °F 79% 30.07 in 10.0 mi Calm Calm - N/A   Clear
10:15 PM 53.6 °F - 48.9 °F 84% 30.07 in 10.0 mi Calm Calm - N/A   Clear
10:35 PM 52.9 °F - 47.7 °F 82% 30.07 in 10.0 mi Calm Calm - N/A   Clear
10:55 PM 54.3 °F - 48.6 °F 81% 30.07 in 10.0 mi Calm Calm - N/A   Clear
11:15 PM 53.4 °F - 48.2 °F 82% 30.07 in 10.0 mi Calm Calm - N/A   Clear
11:35 PM 52.0 °F - 47.3 °F 84% 30.08 in 10.0 mi Calm Calm - N/A   Clear
11:55 PM 52.7 °F - 47.5 °F 82% 30.07 in 10.0 mi Calm Calm - N/A   Clear